Year,Month,Day,Hour,Minute,Value (Times are PST for temperature in C)
2014,08,13,00,00,19.50
2014,08,13,00,01,19.30
2014,08,13,00,02,19.10
2014,08,13,00,03,18.90
2014,08,13,00,04,18.80
2014,08,13,00,05,18.60
2014,08,13,00,06,18.50
2014,08,13,00,07,18.40
2014,08,13,00,08,18.30
2014,08,13,00,09,18.30
2014,08,13,00,10,18.20
2014,08,13,00,11,18.20
2014,08,13,00,12,18.20
2014,08,13,00,13,18.20
2014,08,13,00,14,18.20
2014,08,13,00,15,18.20
2014,08,13,00,16,18.20
2014,08,13,00,17,18.20
2014,08,13,00,18,18.20
2014,08,13,00,19,18.20
2014,08,13,00,20,18.30
2014,08,13,00,21,18.30
2014,08,13,00,22,18.40
2014,08,13,00,23,18.40
2014,08,13,00,24,18.50
2014,08,13,00,25,18.50
2014,08,13,00,26,18.60
2014,08,13,00,27,18.70
2014,08,13,00,28,18.80
2014,08,13,00,29,18.80
2014,08,13,00,30,18.90
2014,08,13,00,31,18.90
2014,08,13,00,32,19.00
2014,08,13,00,33,19.10
2014,08,13,00,34,19.10
2014,08,13,00,35,19.20
2014,08,13,00,36,19.30
2014,08,13,00,37,19.40
2014,08,13,00,38,19.60
2014,08,13,00,39,19.80
2014,08,13,00,40,20.00
2014,08,13,00,41,20.20
2014,08,13,00,42,20.40
2014,08,13,00,43,20.50
2014,08,13,00,44,20.60
2014,08,13,00,45,20.80
2014,08,13,00,46,20.80
2014,08,13,00,47,20.90
2014,08,13,00,48,21.00
2014,08,13,00,49,21.00
2014,08,13,00,50,21.10
2014,08,13,00,51,21.10
2014,08,13,00,52,21.10
2014,08,13,00,53,21.10
2014,08,13,00,54,21.00
2014,08,13,00,55,21.00
2014,08,13,00,56,20.80
2014,08,13,00,57,20.70
2014,08,13,00,58,20.60
2014,08,13,00,59,20.50
2014,08,13,01,00,20.40
2014,08,13,01,01,20.40
2014,08,13,01,02,20.30
2014,08,13,01,03,20.30
2014,08,13,01,04,20.30
2014,08,13,01,05,20.20
2014,08,13,01,06,20.20
2014,08,13,01,07,20.20
2014,08,13,01,08,20.20
2014,08,13,01,09,20.20
2014,08,13,01,10,20.20
2014,08,13,01,11,20.20
2014,08,13,01,12,20.20
2014,08,13,01,13,20.20
2014,08,13,01,14,20.10
2014,08,13,01,15,20.10
2014,08,13,01,16,20.10
2014,08,13,01,17,20.10
2014,08,13,01,18,20.00
2014,08,13,01,19,19.90
2014,08,13,01,20,19.90
2014,08,13,01,21,19.90
2014,08,13,01,22,19.90
2014,08,13,01,23,19.90
2014,08,13,01,24,19.90
2014,08,13,01,25,20.00
2014,08,13,01,26,20.10
2014,08,13,01,27,20.10
2014,08,13,01,28,20.10
2014,08,13,01,29,20.10
2014,08,13,01,30,20.00
2014,08,13,01,31,19.90
2014,08,13,01,32,19.90
2014,08,13,01,33,19.90
2014,08,13,01,34,19.90
2014,08,13,01,35,20.00
2014,08,13,01,36,20.10
2014,08,13,01,37,20.10
2014,08,13,01,38,20.10
2014,08,13,01,39,20.10
2014,08,13,01,40,20.10
2014,08,13,01,41,20.10
2014,08,13,01,42,20.00
2014,08,13,01,43,19.90
2014,08,13,01,44,19.90
2014,08,13,01,45,19.80
2014,08,13,01,46,19.80
2014,08,13,01,47,19.80
2014,08,13,01,48,19.80
2014,08,13,01,49,19.80
2014,08,13,01,50,19.80
2014,08,13,01,51,19.80
2014,08,13,01,52,19.80
2014,08,13,01,53,19.80
2014,08,13,01,54,19.80
2014,08,13,01,55,19.80
2014,08,13,01,56,19.80
2014,08,13,01,57,19.90
2014,08,13,01,58,19.90
2014,08,13,01,59,19.90
2014,08,13,02,00,19.90
2014,08,13,02,01,19.90
2014,08,13,02,02,19.90
2014,08,13,02,03,19.90
2014,08,13,02,04,19.80
2014,08,13,02,05,19.70
2014,08,13,02,06,19.70
2014,08,13,02,07,19.60
2014,08,13,02,08,19.50
2014,08,13,02,09,19.40
2014,08,13,02,10,19.30
2014,08,13,02,11,19.10
2014,08,13,02,12,19.10
2014,08,13,02,13,19.00
2014,08,13,02,14,18.90
2014,08,13,02,15,18.90
2014,08,13,02,16,18.80
2014,08,13,02,17,18.70
2014,08,13,02,18,18.60
2014,08,13,02,19,18.60
2014,08,13,02,20,18.50
2014,08,13,02,21,18.40
2014,08,13,02,22,18.40
2014,08,13,02,23,18.30
2014,08,13,02,24,18.30
2014,08,13,02,25,18.30
2014,08,13,02,26,18.20
2014,08,13,02,27,18.20
2014,08,13,02,28,18.20
2014,08,13,02,29,18.10
2014,08,13,02,30,18.00
2014,08,13,02,31,17.90
2014,08,13,02,32,17.70
2014,08,13,02,33,17.50
2014,08,13,02,34,17.20
2014,08,13,02,35,16.90
2014,08,13,02,36,16.60
2014,08,13,02,37,16.30
2014,08,13,02,38,16.00
2014,08,13,02,39,15.70
2014,08,13,02,40,15.30
2014,08,13,02,41,15.00
2014,08,13,02,42,14.80
2014,08,13,02,43,14.60
2014,08,13,02,44,14.40
2014,08,13,02,45,14.30
2014,08,13,02,46,14.20
2014,08,13,02,47,14.00
2014,08,13,02,48,13.90
2014,08,13,02,49,13.80
2014,08,13,02,50,13.70
2014,08,13,02,51,13.70
2014,08,13,02,52,13.70
2014,08,13,02,53,13.70
2014,08,13,02,54,13.70
2014,08,13,02,55,13.70
2014,08,13,02,56,13.70
2014,08,13,02,57,13.70
2014,08,13,02,58,13.70
2014,08,13,02,59,13.70
2014,08,13,03,00,13.70
2014,08,13,03,01,13.70
2014,08,13,03,02,13.70
2014,08,13,03,03,13.70
2014,08,13,03,04,13.80
2014,08,13,03,05,13.80
2014,08,13,03,06,13.80
2014,08,13,03,07,13.80
2014,08,13,03,08,13.90
2014,08,13,03,09,13.90
2014,08,13,03,10,13.90
2014,08,13,03,11,13.90
2014,08,13,03,12,14.00
2014,08,13,03,13,14.00
2014,08,13,03,14,14.00
2014,08,13,03,15,14.10
2014,08,13,03,16,14.10
2014,08,13,03,17,14.00
2014,08,13,03,18,14.00
2014,08,13,03,19,14.00
2014,08,13,03,20,13.90
2014,08,13,03,21,13.90
2014,08,13,03,22,13.90
2014,08,13,03,23,13.80
2014,08,13,03,24,13.80
2014,08,13,03,25,13.80
2014,08,13,03,26,13.70
2014,08,13,03,27,13.70
2014,08,13,03,28,13.70
2014,08,13,03,29,13.70
2014,08,13,03,30,13.70
2014,08,13,03,31,13.70
2014,08,13,03,32,13.70
2014,08,13,03,33,13.70
2014,08,13,03,34,13.70
2014,08,13,03,35,13.70
2014,08,13,03,36,13.80
2014,08,13,03,37,13.80
2014,08,13,03,38,13.80
2014,08,13,03,39,13.80
2014,08,13,03,40,13.80
2014,08,13,03,41,13.80
2014,08,13,03,42,13.80
2014,08,13,03,43,13.80
2014,08,13,03,44,13.90
2014,08,13,03,45,13.90
2014,08,13,03,46,14.00
2014,08,13,03,47,14.10
2014,08,13,03,48,14.20
2014,08,13,03,49,14.20
2014,08,13,03,50,14.20
2014,08,13,03,51,14.30
2014,08,13,03,52,14.30
2014,08,13,03,53,14.20
2014,08,13,03,54,14.20
2014,08,13,03,55,14.20
2014,08,13,03,56,14.20
2014,08,13,03,57,14.20
2014,08,13,03,58,14.10
2014,08,13,03,59,14.00
2014,08,13,04,00,14.00
2014,08,13,04,01,13.90
2014,08,13,04,02,13.90
2014,08,13,04,03,13.80
2014,08,13,04,04,13.80
2014,08,13,04,05,13.80
2014,08,13,04,06,13.80
2014,08,13,04,07,13.90
2014,08,13,04,08,14.00
2014,08,13,04,09,14.00
2014,08,13,04,10,14.10
2014,08,13,04,11,14.20
2014,08,13,04,12,14.20
2014,08,13,04,13,14.30
2014,08,13,04,14,14.70
2014,08,13,04,15,15.10
2014,08,13,04,16,15.30
2014,08,13,04,17,15.60
2014,08,13,04,18,15.90
2014,08,13,04,19,16.10
2014,08,13,04,20,16.30
2014,08,13,04,21,16.40
2014,08,13,04,22,16.50
2014,08,13,04,23,16.70
2014,08,13,04,24,16.80
2014,08,13,04,25,16.90
2014,08,13,04,26,17.00
2014,08,13,04,27,17.00
2014,08,13,04,28,17.00
2014,08,13,04,29,17.00
2014,08,13,04,30,17.10
2014,08,13,04,31,17.20
2014,08,13,04,32,17.30
2014,08,13,04,33,17.50
2014,08,13,04,34,17.50
2014,08,13,04,35,17.60
2014,08,13,04,36,17.60
2014,08,13,04,37,17.60
2014,08,13,04,38,17.60
2014,08,13,04,39,17.50
2014,08,13,04,40,17.40
2014,08,13,04,41,17.30
2014,08,13,04,42,17.30
2014,08,13,04,43,17.20
2014,08,13,04,44,17.10
2014,08,13,04,45,17.10
2014,08,13,04,46,17.00
2014,08,13,04,47,17.00
2014,08,13,04,48,16.90
2014,08,13,04,49,16.90
2014,08,13,04,50,16.80
2014,08,13,04,51,16.70
2014,08,13,04,52,16.70
2014,08,13,04,53,16.60
2014,08,13,04,54,16.60
2014,08,13,04,55,16.60
2014,08,13,04,56,16.60
2014,08,13,04,57,16.70
2014,08,13,04,58,16.70
2014,08,13,04,59,16.70
2014,08,13,05,00,16.80
2014,08,13,05,01,16.90
2014,08,13,05,02,17.00
2014,08,13,05,03,17.10
2014,08,13,05,04,17.20
2014,08,13,05,05,17.30
2014,08,13,05,06,17.30
2014,08,13,05,07,17.40
2014,08,13,05,08,17.40
2014,08,13,05,09,17.50
2014,08,13,05,10,17.60
2014,08,13,05,11,17.70
2014,08,13,05,12,17.70
2014,08,13,05,13,17.70
2014,08,13,05,14,17.80
2014,08,13,05,15,17.80
2014,08,13,05,16,17.80
2014,08,13,05,17,17.80
2014,08,13,05,18,17.80
2014,08,13,05,19,17.80
2014,08,13,05,20,17.70
2014,08,13,05,21,17.70
2014,08,13,05,22,17.70
2014,08,13,05,23,17.70
2014,08,13,05,24,17.70
2014,08,13,05,25,17.60
2014,08,13,05,26,17.60
2014,08,13,05,27,17.60
2014,08,13,05,28,17.60
2014,08,13,05,29,17.50
2014,08,13,05,30,17.50
2014,08,13,05,31,17.50
2014,08,13,05,32,17.60
2014,08,13,05,33,17.60
2014,08,13,05,34,17.60
2014,08,13,05,35,17.60
2014,08,13,05,36,17.50
2014,08,13,05,37,17.50
2014,08,13,05,38,17.50
2014,08,13,05,39,17.50
2014,08,13,05,40,17.50
2014,08,13,05,41,17.50
2014,08,13,05,42,17.50
2014,08,13,05,43,17.50
2014,08,13,05,44,17.50
2014,08,13,05,45,17.50
2014,08,13,05,46,17.50
2014,08,13,05,47,17.50
2014,08,13,05,48,17.50
2014,08,13,05,49,17.50
2014,08,13,05,50,17.50
2014,08,13,05,51,17.50
2014,08,13,05,52,17.50
2014,08,13,05,53,17.50
2014,08,13,05,54,17.50
2014,08,13,05,55,17.50
2014,08,13,05,56,17.60
2014,08,13,05,57,17.60
2014,08,13,05,58,17.60
2014,08,13,05,59,17.60
2014,08,13,06,00,17.60
2014,08,13,06,01,17.50
2014,08,13,06,02,17.50
2014,08,13,06,03,17.50
2014,08,13,06,04,17.50
2014,08,13,06,05,17.50
2014,08,13,06,06,17.50
2014,08,13,06,07,17.50
2014,08,13,06,08,17.40
2014,08,13,06,09,17.40
2014,08,13,06,10,17.40
2014,08,13,06,11,17.40
2014,08,13,06,12,17.40
2014,08,13,06,13,17.40
2014,08,13,06,14,17.40
2014,08,13,06,15,17.40
2014,08,13,06,16,17.40
2014,08,13,06,17,17.40
2014,08,13,06,18,17.40
2014,08,13,06,19,17.40
2014,08,13,06,20,17.30
2014,08,13,06,21,17.30
2014,08,13,06,22,17.30
2014,08,13,06,23,17.30
2014,08,13,06,24,17.30
2014,08,13,06,25,17.30
2014,08,13,06,26,17.30
2014,08,13,06,27,17.30
2014,08,13,06,28,17.30
2014,08,13,06,29,17.30
2014,08,13,06,30,17.30
2014,08,13,06,31,17.30
2014,08,13,06,32,17.30
2014,08,13,06,33,17.30
2014,08,13,06,34,17.30
2014,08,13,06,35,17.30
2014,08,13,06,36,17.30
2014,08,13,06,37,17.30
2014,08,13,06,38,17.30
2014,08,13,06,39,17.30
2014,08,13,06,40,17.30
2014,08,13,06,41,17.30
2014,08,13,06,42,17.30
2014,08,13,06,43,17.20
2014,08,13,06,44,17.20
2014,08,13,06,45,17.20
2014,08,13,06,46,17.20
2014,08,13,06,47,17.20
2014,08,13,06,48,17.20
2014,08,13,06,49,17.10
2014,08,13,06,50,17.10
2014,08,13,06,51,17.10
2014,08,13,06,52,17.00
2014,08,13,06,53,17.00
2014,08,13,06,54,17.00
2014,08,13,06,55,17.00
2014,08,13,06,56,17.00
2014,08,13,06,57,17.00
2014,08,13,06,58,17.00
2014,08,13,06,59,17.00
2014,08,13,07,00,17.00
2014,08,13,07,01,17.00
2014,08,13,07,02,17.00
2014,08,13,07,03,17.00
2014,08,13,07,04,17.00
2014,08,13,07,05,17.00
2014,08,13,07,06,17.00
2014,08,13,07,07,17.00
2014,08,13,07,08,17.00
2014,08,13,07,09,17.00
2014,08,13,07,10,17.00
2014,08,13,07,11,17.00
2014,08,13,07,12,17.00
2014,08,13,07,13,17.00
2014,08,13,07,14,17.00
2014,08,13,07,15,17.00
2014,08,13,07,16,17.00
2014,08,13,07,17,17.00
2014,08,13,07,18,17.00
2014,08,13,07,19,17.00
2014,08,13,07,20,17.00
2014,08,13,07,21,17.00
2014,08,13,07,22,17.00
2014,08,13,07,23,17.00
2014,08,13,07,24,17.00
2014,08,13,07,25,17.00
2014,08,13,07,26,17.00
2014,08,13,07,27,17.00
2014,08,13,07,28,17.00
2014,08,13,07,29,17.00
2014,08,13,07,30,17.00
2014,08,13,07,31,17.00
2014,08,13,07,32,17.00
2014,08,13,07,33,17.00
2014,08,13,07,34,17.00
2014,08,13,07,35,17.10
2014,08,13,07,36,17.10
2014,08,13,07,37,17.10
2014,08,13,07,38,17.10
2014,08,13,07,39,17.10
2014,08,13,07,40,17.10
2014,08,13,07,41,17.10
2014,08,13,07,42,17.10
2014,08,13,07,43,17.10
2014,08,13,07,44,17.10
2014,08,13,07,45,17.20
2014,08,13,07,46,17.20
2014,08,13,07,47,17.20
2014,08,13,07,48,17.20
2014,08,13,07,49,17.20
2014,08,13,07,50,17.20
2014,08,13,07,51,17.30
2014,08,13,07,52,17.30
2014,08,13,07,53,17.30
2014,08,13,07,54,17.30
2014,08,13,07,55,17.30
2014,08,13,07,56,17.30
2014,08,13,07,57,17.30
2014,08,13,07,58,17.30
2014,08,13,07,59,17.30
2014,08,13,08,00,17.30
2014,08,13,08,01,17.30
2014,08,13,08,02,17.30
2014,08,13,08,03,17.30
2014,08,13,08,04,17.30
2014,08,13,08,05,17.30
2014,08,13,08,06,17.30
2014,08,13,08,07,17.30
2014,08,13,08,08,17.30
2014,08,13,08,09,17.30
2014,08,13,08,10,17.30
2014,08,13,08,11,17.30
2014,08,13,08,12,17.30
2014,08,13,08,13,17.30
2014,08,13,08,14,17.30
2014,08,13,08,15,17.30
2014,08,13,08,16,17.40
2014,08,13,08,17,17.40
2014,08,13,08,18,17.40
2014,08,13,08,19,17.40
2014,08,13,08,20,17.40
2014,08,13,08,21,17.40
2014,08,13,08,22,17.40
2014,08,13,08,23,17.40
2014,08,13,08,24,17.40
2014,08,13,08,25,17.30
2014,08,13,08,26,17.30
2014,08,13,08,27,17.30
2014,08,13,08,28,17.30
2014,08,13,08,29,17.30
2014,08,13,08,30,17.30
2014,08,13,08,31,17.30
2014,08,13,08,32,17.30
2014,08,13,08,33,17.30
2014,08,13,08,34,17.30
2014,08,13,08,35,17.30
2014,08,13,08,36,17.30
2014,08,13,08,37,17.30
2014,08,13,08,38,17.30
2014,08,13,08,39,17.30
2014,08,13,08,40,17.30
2014,08,13,08,41,17.30
2014,08,13,08,42,17.30
2014,08,13,08,43,17.30
2014,08,13,08,44,17.30
2014,08,13,08,45,17.30
2014,08,13,08,46,17.30
2014,08,13,08,47,17.30
2014,08,13,08,48,17.30
2014,08,13,08,49,17.30
2014,08,13,08,50,17.30
2014,08,13,08,51,17.30
2014,08,13,08,52,17.30
2014,08,13,08,53,17.30
2014,08,13,08,54,17.30
2014,08,13,08,55,17.30
2014,08,13,08,56,17.30
2014,08,13,08,57,17.30
2014,08,13,08,58,17.30
2014,08,13,08,59,17.30
2014,08,13,09,00,17.30
2014,08,13,09,01,17.30
2014,08,13,09,02,17.30
2014,08,13,09,03,17.30
2014,08,13,09,04,17.30
2014,08,13,09,05,17.30
2014,08,13,09,06,17.30
2014,08,13,09,07,17.30
2014,08,13,09,08,17.30
2014,08,13,09,09,17.30
2014,08,13,09,10,17.30
2014,08,13,09,11,17.30
2014,08,13,09,12,17.30
2014,08,13,09,13,17.30
2014,08,13,09,14,17.30
2014,08,13,09,15,17.30
2014,08,13,09,16,17.30
2014,08,13,09,17,17.30
2014,08,13,09,18,17.30
2014,08,13,09,19,17.30
2014,08,13,09,20,17.30
2014,08,13,09,21,17.30
2014,08,13,09,22,17.30
2014,08,13,09,23,17.30
2014,08,13,09,24,17.30
2014,08,13,09,25,17.30
2014,08,13,09,26,17.30
2014,08,13,09,27,17.30
2014,08,13,09,28,17.30
2014,08,13,09,29,17.30
2014,08,13,09,30,17.30
2014,08,13,09,31,17.30
2014,08,13,09,32,17.30
2014,08,13,09,33,17.30
2014,08,13,09,34,17.30
2014,08,13,09,35,17.30
2014,08,13,09,36,17.30
2014,08,13,09,37,17.30
2014,08,13,09,38,17.30
2014,08,13,09,39,17.30
2014,08,13,09,40,17.30
2014,08,13,09,41,17.30
2014,08,13,09,42,17.30
2014,08,13,09,43,17.40
2014,08,13,09,44,17.40
2014,08,13,09,45,17.40
2014,08,13,09,46,17.40
2014,08,13,09,47,17.40
2014,08,13,09,48,17.40
2014,08,13,09,49,17.40
2014,08,13,09,50,17.40
2014,08,13,09,51,17.40
2014,08,13,09,52,17.40
2014,08,13,09,53,17.40
2014,08,13,09,54,17.40
2014,08,13,09,55,17.40
2014,08,13,09,56,17.40
2014,08,13,09,57,17.40
2014,08,13,09,58,17.40
2014,08,13,09,59,17.40
2014,08,13,10,00,17.50
2014,08,13,10,01,17.50
2014,08,13,10,02,17.50
2014,08,13,10,03,17.50
2014,08,13,10,04,17.50
2014,08,13,10,05,17.50
2014,08,13,10,06,17.60
2014,08,13,10,07,17.60
2014,08,13,10,08,17.60
2014,08,13,10,09,17.60
2014,08,13,10,10,17.60
2014,08,13,10,11,17.60
2014,08,13,10,12,17.60
2014,08,13,10,13,17.60
2014,08,13,10,14,17.60
2014,08,13,10,15,17.60
2014,08,13,10,16,17.50
2014,08,13,10,17,17.40
2014,08,13,10,18,17.20
2014,08,13,10,19,16.80
2014,08,13,10,20,16.50
2014,08,13,10,21,16.20
2014,08,13,10,22,15.90
2014,08,13,10,23,15.50
2014,08,13,10,24,15.30
2014,08,13,10,25,15.20
2014,08,13,10,26,15.10
2014,08,13,10,27,15.00
2014,08,13,10,28,14.90
2014,08,13,10,29,14.80
2014,08,13,10,30,14.70
2014,08,13,10,31,14.60
2014,08,13,10,32,14.50
2014,08,13,10,33,14.40
2014,08,13,10,34,14.30
2014,08,13,10,35,14.30
2014,08,13,10,36,14.20
2014,08,13,10,37,14.10
2014,08,13,10,38,14.00
2014,08,13,10,39,13.90
2014,08,13,10,40,13.90
2014,08,13,10,41,13.90
2014,08,13,10,42,13.80
2014,08,13,10,43,13.80
2014,08,13,10,44,13.70
2014,08,13,10,45,13.70
2014,08,13,10,46,13.60
2014,08,13,10,47,13.60
2014,08,13,10,48,13.60
2014,08,13,10,49,13.60
2014,08,13,10,50,13.50
2014,08,13,10,51,13.50
2014,08,13,10,52,13.40
2014,08,13,10,53,13.30
2014,08,13,10,54,13.30
2014,08,13,10,55,13.30
2014,08,13,10,56,13.30
2014,08,13,10,57,13.30
2014,08,13,10,58,13.30
2014,08,13,10,59,13.20
2014,08,13,11,00,13.20
2014,08,13,11,01,13.20
2014,08,13,11,02,13.20
2014,08,13,11,03,13.20
2014,08,13,11,04,13.20
2014,08,13,11,05,13.20
2014,08,13,11,06,13.20
2014,08,13,11,07,13.30
2014,08,13,11,08,13.30
2014,08,13,11,09,13.30
2014,08,13,11,10,13.30
2014,08,13,11,11,13.30
2014,08,13,11,12,13.30
2014,08,13,11,13,13.20
2014,08,13,11,14,13.20
2014,08,13,11,15,13.10
2014,08,13,11,16,13.10
2014,08,13,11,17,13.10
2014,08,13,11,18,13.20
2014,08,13,11,19,13.20
2014,08,13,11,20,13.20
2014,08,13,11,21,13.10
2014,08,13,11,22,13.10
2014,08,13,11,23,13.10
2014,08,13,11,24,13.20
2014,08,13,11,25,13.20
2014,08,13,11,26,13.20
2014,08,13,11,27,13.20
2014,08,13,11,28,13.20
2014,08,13,11,29,13.10
2014,08,13,11,30,13.10
2014,08,13,11,31,13.00
2014,08,13,11,32,13.00
2014,08,13,11,33,13.00
2014,08,13,11,34,13.00
2014,08,13,11,35,13.00
2014,08,13,11,36,13.00
2014,08,13,11,37,13.00
2014,08,13,11,38,13.10
2014,08,13,11,39,13.10
2014,08,13,11,40,13.20
2014,08,13,11,41,13.20
2014,08,13,11,42,13.20
2014,08,13,11,43,13.20
2014,08,13,11,44,13.30
2014,08,13,11,45,13.30
2014,08,13,11,46,13.30
2014,08,13,11,47,13.30
2014,08,13,11,48,13.30
2014,08,13,11,49,13.40
2014,08,13,11,50,13.50
2014,08,13,11,51,13.50
2014,08,13,11,52,13.60
2014,08,13,11,53,13.60
2014,08,13,11,54,13.70
2014,08,13,11,55,13.70
2014,08,13,11,56,13.70
2014,08,13,11,57,13.70
2014,08,13,11,58,13.70
2014,08,13,11,59,13.80
2014,08,13,12,00,13.80
2014,08,13,12,01,13.90
2014,08,13,12,02,13.90
2014,08,13,12,03,14.00
2014,08,13,12,04,14.00
2014,08,13,12,05,14.10
2014,08,13,12,06,14.20
2014,08,13,12,07,14.20
2014,08,13,12,08,14.20
2014,08,13,12,09,14.10
2014,08,13,12,10,14.10
2014,08,13,12,11,14.00
2014,08,13,12,12,14.00
2014,08,13,12,13,14.00
2014,08,13,12,14,14.00
2014,08,13,12,15,14.00
2014,08,13,12,16,14.00
2014,08,13,12,17,14.00
2014,08,13,12,18,14.10
2014,08,13,12,19,14.10
2014,08,13,12,20,14.10
2014,08,13,12,21,14.00
2014,08,13,12,22,14.00
2014,08,13,12,23,14.00
2014,08,13,12,24,14.00
2014,08,13,12,25,14.00
2014,08,13,12,26,14.00
2014,08,13,12,27,14.00
2014,08,13,12,28,14.00
2014,08,13,12,29,14.00
2014,08,13,12,30,14.00
2014,08,13,12,31,14.00
2014,08,13,12,32,14.00
2014,08,13,12,33,14.00
2014,08,13,12,34,14.00
2014,08,13,12,35,14.00
2014,08,13,12,36,14.00
2014,08,13,12,37,14.00
2014,08,13,12,38,14.00
2014,08,13,12,39,14.00
2014,08,13,12,40,14.00
2014,08,13,12,41,14.00
2014,08,13,12,42,14.10
2014,08,13,12,43,14.00
2014,08,13,12,44,14.00
2014,08,13,12,45,14.00
2014,08,13,12,46,13.90
2014,08,13,12,47,13.90
2014,08,13,12,48,13.80
2014,08,13,12,49,13.70
2014,08,13,12,50,13.70
2014,08,13,12,51,13.60
2014,08,13,12,52,13.60
2014,08,13,12,53,13.50
2014,08,13,12,54,13.40
2014,08,13,12,55,13.30
2014,08,13,12,56,13.20
2014,08,13,12,57,13.10
2014,08,13,12,58,13.00
2014,08,13,12,59,12.90
2014,08,13,13,00,12.80
2014,08,13,13,01,12.80
2014,08,13,13,02,12.80
2014,08,13,13,03,12.80
2014,08,13,13,04,12.70
2014,08,13,13,05,12.70
2014,08,13,13,06,12.70
2014,08,13,13,07,12.70
2014,08,13,13,08,12.70
2014,08,13,13,09,12.70
2014,08,13,13,10,12.70
2014,08,13,13,11,12.70
2014,08,13,13,12,12.70
2014,08,13,13,13,12.60
2014,08,13,13,14,12.60
2014,08,13,13,15,12.60
2014,08,13,13,16,12.60
2014,08,13,13,17,12.70
2014,08,13,13,18,12.70
2014,08,13,13,19,12.70
2014,08,13,13,20,12.70
2014,08,13,13,21,12.70
2014,08,13,13,22,12.70
2014,08,13,13,23,12.70
2014,08,13,13,24,12.70
2014,08,13,13,25,12.70
2014,08,13,13,26,12.80
2014,08,13,13,27,12.80
2014,08,13,13,28,12.70
2014,08,13,13,29,12.70
2014,08,13,13,30,12.70
2014,08,13,13,31,12.70
2014,08,13,13,32,12.70
2014,08,13,13,33,12.70
2014,08,13,13,34,12.70
2014,08,13,13,35,12.70
2014,08,13,13,36,12.70
2014,08,13,13,37,12.70
2014,08,13,13,38,12.80
2014,08,13,13,39,12.80
2014,08,13,13,40,12.80
2014,08,13,13,41,12.80
2014,08,13,13,42,12.80
2014,08,13,13,43,12.80
2014,08,13,13,44,12.90
2014,08,13,13,45,12.90
2014,08,13,13,46,12.90
2014,08,13,13,47,13.00
2014,08,13,13,48,13.00
2014,08,13,13,49,13.10
2014,08,13,13,50,13.10
2014,08,13,13,51,13.20
2014,08,13,13,52,13.30
2014,08,13,13,53,13.30
2014,08,13,13,54,13.30
2014,08,13,13,55,13.30
2014,08,13,13,56,13.40
2014,08,13,13,57,13.40
2014,08,13,13,58,13.50
2014,08,13,13,59,13.50
2014,08,13,14,00,13.60
2014,08,13,14,01,13.60
2014,08,13,14,02,13.60
2014,08,13,14,03,13.70
2014,08,13,14,04,13.70
2014,08,13,14,05,13.70
2014,08,13,14,06,13.70
2014,08,13,14,07,13.80
2014,08,13,14,08,13.80
2014,08,13,14,09,13.90
2014,08,13,14,10,13.90
2014,08,13,14,11,14.00
2014,08,13,14,12,14.00
2014,08,13,14,13,14.00
2014,08,13,14,14,14.00
2014,08,13,14,15,14.00
2014,08,13,14,16,14.00
2014,08,13,14,17,14.00
2014,08,13,14,18,14.10
2014,08,13,14,19,14.00
2014,08,13,14,20,14.00
2014,08,13,14,21,14.00
2014,08,13,14,22,14.00
2014,08,13,14,23,14.00
2014,08,13,14,24,14.00
2014,08,13,14,25,14.00
2014,08,13,14,26,14.00
2014,08,13,14,27,14.10
2014,08,13,14,28,14.10
2014,08,13,14,29,14.10
2014,08,13,14,30,14.20
2014,08,13,14,31,14.20
2014,08,13,14,32,14.20
2014,08,13,14,33,14.20
2014,08,13,14,34,14.20
2014,08,13,14,35,14.20
2014,08,13,14,36,14.30
2014,08,13,14,37,14.30
2014,08,13,14,38,14.40
2014,08,13,14,39,14.40
2014,08,13,14,40,14.40
2014,08,13,14,41,14.50
2014,08,13,14,42,14.50
2014,08,13,14,43,14.50
2014,08,13,14,44,14.50
2014,08,13,14,45,14.50
2014,08,13,14,46,14.50
2014,08,13,14,47,14.50
2014,08,13,14,48,14.50
2014,08,13,14,49,14.50
2014,08,13,14,50,14.50
2014,08,13,14,51,14.60
2014,08,13,14,52,14.60
2014,08,13,14,53,14.60
2014,08,13,14,54,14.60
2014,08,13,14,55,14.60
2014,08,13,14,56,14.70
2014,08,13,14,57,14.70
2014,08,13,14,58,14.70
2014,08,13,14,59,14.70
2014,08,13,15,00,14.80
2014,08,13,15,01,14.80
2014,08,13,15,02,14.80
2014,08,13,15,03,14.80
2014,08,13,15,04,14.80
2014,08,13,15,05,14.80
2014,08,13,15,06,14.90
2014,08,13,15,07,14.90
2014,08,13,15,08,14.90
2014,08,13,15,09,14.90
2014,08,13,15,10,14.90
2014,08,13,15,11,14.90
2014,08,13,15,12,15.00
2014,08,13,15,13,15.00
2014,08,13,15,14,15.00
2014,08,13,15,15,14.90
2014,08,13,15,16,14.90
2014,08,13,15,17,14.80
2014,08,13,15,18,14.80
2014,08,13,15,19,14.80
2014,08,13,15,20,14.80
2014,08,13,15,21,14.80
2014,08,13,15,22,14.80
2014,08,13,15,23,14.80
2014,08,13,15,24,14.80
2014,08,13,15,25,14.80
2014,08,13,15,26,14.80
2014,08,13,15,27,14.80
2014,08,13,15,28,14.80
2014,08,13,15,29,14.70
2014,08,13,15,30,14.70
2014,08,13,15,31,14.60
2014,08,13,15,32,14.60
2014,08,13,15,33,14.50
2014,08,13,15,34,14.50
2014,08,13,15,35,14.50
2014,08,13,15,36,14.50
2014,08,13,15,37,14.50
2014,08,13,15,38,14.50
2014,08,13,15,39,14.50
2014,08,13,15,40,14.50
2014,08,13,15,41,14.50
2014,08,13,15,42,14.60
2014,08,13,15,43,14.60
2014,08,13,15,44,14.60
2014,08,13,15,45,14.60
2014,08,13,15,46,14.70
2014,08,13,15,47,14.70
2014,08,13,15,48,14.80
2014,08,13,15,49,14.80
2014,08,13,15,50,14.80
2014,08,13,15,51,14.80
2014,08,13,15,52,14.70
2014,08,13,15,53,14.70
2014,08,13,15,54,14.70
2014,08,13,15,55,14.70
2014,08,13,15,56,14.60
2014,08,13,15,57,14.60
2014,08,13,15,58,14.50
2014,08,13,15,59,14.50
2014,08,13,16,00,14.50
2014,08,13,16,01,14.50
2014,08,13,16,02,14.40
2014,08,13,16,03,14.40
2014,08,13,16,04,14.30
2014,08,13,16,05,14.30
2014,08,13,16,06,14.30
2014,08,13,16,07,14.20
2014,08,13,16,08,14.20
2014,08,13,16,09,14.20
2014,08,13,16,10,14.20
2014,08,13,16,11,14.20
2014,08,13,16,12,14.20
2014,08,13,16,13,14.20
2014,08,13,16,14,14.20
2014,08,13,16,15,14.20
2014,08,13,16,16,14.20
2014,08,13,16,17,14.20
2014,08,13,16,18,14.20
2014,08,13,16,19,14.20
2014,08,13,16,20,14.20
2014,08,13,16,21,14.20
2014,08,13,16,22,14.30
2014,08,13,16,23,14.30
2014,08,13,16,24,14.30
2014,08,13,16,25,14.30
2014,08,13,16,26,14.20
2014,08,13,16,27,14.20
2014,08,13,16,28,14.20
2014,08,13,16,29,14.10
2014,08,13,16,30,14.10
2014,08,13,16,31,14.10
2014,08,13,16,32,14.10
2014,08,13,16,33,14.10
2014,08,13,16,34,14.10
2014,08,13,16,35,14.00
2014,08,13,16,36,14.00
2014,08,13,16,37,14.00
2014,08,13,16,38,14.00
2014,08,13,16,39,14.00
2014,08,13,16,40,14.00
2014,08,13,16,41,14.00
2014,08,13,16,42,14.00
2014,08,13,16,43,14.00
2014,08,13,16,44,14.00
2014,08,13,16,45,14.00
2014,08,13,16,46,14.00
2014,08,13,16,47,14.00
2014,08,13,16,48,14.00
2014,08,13,16,49,14.10
2014,08,13,16,50,14.00
2014,08,13,16,51,14.00
2014,08,13,16,52,14.00
2014,08,13,16,53,13.90
2014,08,13,16,54,13.90
2014,08,13,16,55,13.90
2014,08,13,16,56,13.90
2014,08,13,16,57,13.90
2014,08,13,16,58,13.90
2014,08,13,16,59,13.90
2014,08,13,17,00,13.90
2014,08,13,17,01,14.00
2014,08,13,17,02,14.00
2014,08,13,17,03,14.00
2014,08,13,17,04,14.10
2014,08,13,17,05,14.10
2014,08,13,17,06,14.20
2014,08,13,17,07,14.20
2014,08,13,17,08,14.20
2014,08,13,17,09,14.20
2014,08,13,17,10,14.20
2014,08,13,17,11,14.20
2014,08,13,17,12,14.20
2014,08,13,17,13,14.30
2014,08,13,17,14,14.30
2014,08,13,17,15,14.30
2014,08,13,17,16,14.30
2014,08,13,17,17,14.30
2014,08,13,17,18,14.30
2014,08,13,17,19,14.30